SCP
0 0 0 0 0 0 0 0 0 0 0 0 0 0 0 0 0 0 0 0 0 0 0 0 0 0 0 0 0 0 0 0 0 0 0 0 0 0 0 0 0 0 0
0 0 0 0 0 0 0 0 0 0 0 0 0 0 0 0 0 0 0 0 0 0 0 0 0 0 0 0 0 0 0 0 0 0 0 0 0 0 0 0 0 0 0
0 0 0 0 0 0 0 0 0 0 0 0 0 0 0 0 0 0 0 0 0 0 0 0 0 0 0 0 0 0 0 0 0 0 0 0 0 0 0 0 0 0 0
0 0 0 0 0 0 0 0 0 0 0 0 0 0 0 0 0 0 0 0 0 0 0 0 0 0 0 0 0 0 0 0 0 0 0 0 0 0 0 0 0 0 0
0 0 0 0 0 0 0 0 0 0 0 0 0 0 0 0 0 0 0 0 0 0 0 0 0 0 0 0 0 0 0 0 0 0 0 0 0 0 0 0 0 0 0
0 0 0 0 0 0 0 0 0 0 0 0 0 0 0 0 0 0 0 0 0 0 0 0 0 0 0 0 0 0 0 0 0 0 0 0 0 0 0 0 0 0 0
0 0 0 0 0 0 0 0 0 0 0 0 0 0 0 0 0 0 0 0 0 0 0 0 0 0 0 0 0 0 0 0 0 0 0 0 0 0 0 0 0 0 0
0 0 0 0 0 0 0 0 0 0 -0 -0 0 0 0 0 0 0 0 0 0 0 0 0 0 0 0 0 0 0 0 0 0 0 0 0 0 0 0 0 0 0 0
0 0 0 0 0 0 0 -0 -0 -0 -0 -0 -0 0 0 0 0 0 0 0 0 0 0 0 0 0 0 0 0 0 0 0 0 0 0 0 0 0 0 0 0 0 0
0 0 0 0 0 0 -0 -0 -0 -0 -0 -0 0 0 0 0 0 0 0 0 0 0 0 0 0 0 0 0 0 0 0 0 0 0 0 0 0 0 0 0 0 0 0
-0 0 0 0 0 0 -0 -0 -0 -0 0 0 0 0 0 0 0 0 0 0 0 0 0 0 0 0 0 0 0 0 0 0 0 0 0 0 0 0 0 0 0 0 0
0 0 0 0 0 0 0 0 0 0 0 0 0 0 0 0 0 0 0 0 0 0 0 0 0 0 0 0 0 0 0 0 0 0 0 0 0 0 0 0 0 0 0
0 0 0 0 0 0 0 0 0 0 0 0 0 0 0 0 -0 -0 -0 -0 -0 -0 0 0 -0 0 0 0 0 0 0 0 0 0 0 0 0 0 0 0 0 0 0
0 0 0 0 0 0 0 0 0 0 0 0 0 0 0 0 0 0 0 -0 -0 -0 -0 -0 -0 -0 -0 -0 -0 -0 -0 0 0 0 0 0 0 0 0 0 0 0 0
0 0 0 0 0 0 0 0 0 0 0 0 0 0 0 0 0 0 0 0 0 -0 -0 -0 -0 -0 -0 -0 -0 -0 -0 0 0 0 0 0 0 0 0 0 0 0 0
0 0 0 0 0 0 0 0 0 0 0 0 0 0 0 0 0 0 0 0 0 0 0 0 0 0 -0 -0 -0 -0 -0 0 0 0 0 0 0 0 0 0 0 0 0
0 0 0 0 0 0 0 0 0 0 0 0 0 0 0 0 0 0 0 0 0 0 0 0 0 0 0 0 0 0 0 0 0 0 0 0 0 0 0 0 0 0 0
0 0 0 0 0 0 0 0 0 0 0 0 0 0 0 0 0 0 0 0 0 0 0 0 0 0 0 0 0 0 0 0 0 0 0 0 0 0 0 0 0 0 0
0 0 0 0 0 0 0 0 0 0 0 0 0 0 0 0 0 0 0 0 0 0 0 0 0 0 0 0 0 0 0 0 0 0 0 0 0 0 0 0 0 0 0
0 0 0 0 0 0 0 0 0 0 0 0 0 0 0 0 0 0 0 0 0 0 0 0 0 0 0 0 0 0 0 0 0 0 0 0 0 0 0 0 0 0 0
0 0 0 0 0 0 0 0 0 0 0 0 0 0 0 0 0 0 0 0 0 0 0 0 0 0 0 0 0 0 0 0 0 0 0 0 0 0 0 0 0 0 0
0 0 0 0 0 0 0 0 0 0 0 0 0 0 0 0 0 0 0 0 0 0 0 0 0 0 0 0 0 0 0 0 0 0 0 0 0 0 0 0 0 0 0
0 0 0 0 0 0 0 0 0 0 0 0 0 0 0 0 0 0 0 0 0 0 0 0 0 0 0 0 0 0 0 0 0 0 0 0 0 0 0 0 0 0 0
0 0 0 0 0 0 0 0 0 0 0 0 0 0 0 0 0 0 0 0 0 0 0 0 0 0 0 0 0 0 0 0 0 0 0 0 0 0 0 0 0 0 0
0 0 0 0 0 0 0 0 0 0 0 0 0 0 0 0 0 0 0 0 0 0 0 0 0 0 0 0 0 0 0 0 0 0 0 0 0 0 0 0 0 0 0
0 0 0 0 0 0 0 0 0 0 0 0 0 0 0 0 0 0 0 0 0 0 -0 -0 0 0 0 0 0 0 0 -0 -0 0 0 0 0 0 0 0 0 0 0
Wind_Speed_500mb
35 34 34 34 33 29 24 23 14 9 5 10 12 13 12 14 18 16 23 28 31 33 35 37 41 49 55 54 55 56 60 62 60 61 66 68 68 68 67 65 61 57 53
37 40 42 47 53 53 51 44 39 31 24 16 13 6 3 10 15 17 19 24 28 29 29 32 37 42 50 55 56 56 61 62 63 65 67 58 70 78 76 73 71 66 62
39 41 44 51 52 57 58 56 53 47 42 34 20 10 4 7 10 12 15 20 22 24 25 23 31 39 45 49 52 56 59 63 65 68 61 23 34 46 59 76 80 75 70
37 40 43 48 51 51 48 48 47 47 47 42 37 32 26 21 18 13 9 17 24 27 27 29 31 34 41 45 47 51 56 63 69 69 74 80 72 31 24 37 53 71 75
35 38 39 42 43 44 48 48 45 44 43 40 39 36 33 30 24 16 16 15 13 14 20 28 34 38 40 42 44 46 51 57 66 71 74 76 82 89 80 68 62 58 54
31 33 32 33 38 39 38 39 37 39 37 36 35 33 29 27 25 28 29 33 30 22 20 22 25 28 33 42 49 47 48 54 63 67 72 78 74 73 83 91 95 92 81
23 25 25 28 29 28 28 27 24 24 22 22 21 24 25 24 25 28 33 33 35 37 37 35 30 32 34 34 38 46 55 52 58 65 72 75 82 84 85 83 82 85 84
19 15 16 16 20 23 22 19 18 20 21 20 20 21 21 23 24 25 25 26 30 33 36 37 37 35 35 35 36 42 47 53 60 63 65 73 76 78 81 87 83 86 89
19 9 3 11 15 16 13 13 13 13 13 15 15 17 21 23 27 30 32 34 36 36 36 39 39 38 35 36 39 40 39 45 53 59 65 71 73 72 76 82 82 85 80
24 16 9 11 13 11 9 10 12 13 14 13 14 17 20 24 27 31 34 37 40 44 47 47 50 51 48 46 43 43 43 47 46 48 53 60 69 73 72 74 79 83 92
32 24 18 13 9 5 2 4 7 11 14 18 22 25 28 31 33 35 37 40 41 44 47 50 51 57 59 57 57 56 55 57 58 53 53 52 50 61 73 75 74 80 82
33 28 23 20 15 11 6 1 4 10 17 23 28 31 34 37 42 46 47 48 51 50 57 61 62 63 66 67 67 70 70 68 68 68 67 65 57 56 56 62 78 82 80
40 33 28 25 19 14 10 7 7 12 22 28 32 36 41 46 50 55 56 57 61 64 67 71 75 78 81 82 78 78 81 84 83 79 74 74 70 71 64 60 65 69 78
45 36 34 31 24 20 17 15 13 16 25 31 35 39 42 47 53 57 61 66 72 79 87 92 95 95 96 95 94 93 90 89 92 92 92 86 80 78 73 72 71 69 71
41 41 38 35 32 25 23 24 26 29 34 37 41 44 47 52 55 58 63 71 80 88 96 103 106 108 108 104 98 90 92 96 99 99 98 97 97 93 83 80 80 75 76
39 42 41 40 38 33 30 32 34 35 36 39 43 46 51 57 59 66 74 83 92 97 99 101 102 105 106 105 88 67 73 85 96 104 106 103 104 102 102 96 87 82 82
25 27 42 42 38 38 41 42 41 40 40 44 46 52 59 61 66 74 84 89 93 97 100 101 102 105 107 105 103 81 77 87 95 102 109 113 112 104 98 98 99 98 91
28 28 31 35 36 42 48 45 40 39 43 47 51 56 58 65 75 82 85 90 91 94 98 102 103 107 108 103 98 87 89 102 107 105 100 93 100 103 87 87 92 100 104
18 27 35 39 41 41 43 41 40 41 47 51 55 58 65 74 78 82 84 87 91 95 97 99 101 100 100 88 76 65 69 80 87 88 90 90 95 94 83 85 93 98 108
37 42 43 40 41 42 42 42 42 45 49 54 56 62 71 74 79 79 82 85 88 93 94 97 91 84 81 70 63 56 61 70 75 76 72 70 70 74 75 80 92 103 113
36 42 45 43 44 42 42 44 44 48 52 54 59 66 68 73 74 78 80 82 86 87 88 87 81 75 70 63 57 53 57 67 76 80 82 80 74 76 78 75 80 88 93
43 43 46 48 48 46 47 49 49 52 52 56 63 65 66 67 69 74 77 79 80 82 82 81 79 71 69 67 65 57 58 62 74 85 88 84 76 72 73 74 84 89 88
43 45 51 53 51 48 48 51 53 54 54 61 65 64 65 66 67 70 72 76 73 74 76 74 76 83 83 84 81 70 67 64 72 81 86 82 85 85 87 86 85 85 92
45 46 52 54 51 50 49 52 54 53 57 63 65 64 66 67 67 66 66 68 68 72 71 73 84 86 80 76 73 80 83 86 81 88 97 95 91 82 87 88 87 84 85
50 53 55 55 53 52 51 51 52 53 57 61 63 62 63 65 65 64 61 61 62 65 65 72 75 81 82 80 72 75 78 84 87 86 90 90 92 93 91 89 76 75 76
51 56 55 53 50 51 50 50 52 53 56 60 60 59 61 61 61 64 65 47 55 61 53 56 56 63 66 67 71 72 72 74 75 80 85 82 81 85 87 83 77 74 75
Wind_Direction_500mb
78 75 71 69 67 67 65 63 70 98 218 241 228 230 242 236 239 261 263 265 268 269 272 274 274 273 266 268 274 272 266 263 260 257 254 253 252 250 249 250 252 253 254
84 80 76 73 67 66 64 59 54 51 53 56 58 39 288 259 246 234 254 264 267 269 273 279 277 276 277 276 272 271 271 268 262 256 254 256 255 253 252 252 252 253 252
95 86 77 71 69 65 60 58 57 55 52 47 43 34 313 277 260 256 255 283 286 278 271 269 274 272 274 277 275 273 274 274 269 263 250 251 248 261 256 252 252 251 252
94 85 78 74 66 58 55 52 47 48 47 45 44 44 45 42 36 10 324 284 280 277 272 273 263 259 270 276 279 277 271 272 271 268 261 253 255 278 286 268 258 252 251
96 86 77 70 65 58 49 43 38 37 37 30 31 32 32 31 23 3 339 326 321 300 282 275 272 263 265 269 275 275 274 271 272 269 269 267 261 258 263 273 272 272 269
104 94 79 69 62 55 46 39 27 26 24 19 18 18 23 24 16 19 17 14 4 344 322 308 299 289 282 273 269 271 267 267 269 272 270 267 263 261 263 265 269 274 274
116 96 77 67 58 42 41 37 28 29 32 28 21 19 19 17 14 10 9 2 3 4 6 360 342 320 306 297 289 279 270 268 267 268 268 269 267 266 265 266 272 273 273
144 122 82 55 29 25 29 34 34 38 35 32 34 30 29 27 29 29 22 7 2 1 359 356 353 349 345 334 316 295 287 278 269 268 268 267 268 268 267 266 265 269 271
169 150 100 354 359 12 22 34 42 48 47 38 27 18 14 10 12 13 7 2 355 350 348 344 340 339 340 337 332 329 319 296 287 281 274 267 266 266 267 269 267 267 267
190 201 240 301 329 354 21 43 54 51 47 39 23 15 6 1 356 350 345 343 340 335 333 329 329 330 329 327 324 319 320 314 310 304 291 281 274 269 267 267 270 266 267
201 213 238 256 267 263 142 94 55 36 21 10 1 355 352 350 347 344 340 333 330 327 324 321 320 320 320 321 320 317 312 308 306 304 302 298 293 282 275 268 265 268 269
213 224 234 240 219 212 205 157 20 360 356 353 349 344 338 335 335 336 334 330 325 323 320 319 318 314 312 311 311 310 309 307 304 302 301 297 296 293 286 281 276 269 266
223 220 221 218 220 224 227 257 301 336 339 339 336 333 329 326 327 328 327 325 321 318 315 313 311 310 309 306 305 302 301 299 298 296 293 293 294 291 291 290 284 282 277
225 228 215 216 225 229 240 254 270 306 321 325 322 319 317 317 318 319 318 317 317 316 315 314 312 309 306 305 303 302 298 293 290 289 288 286 285 285 287 287 286 286 282
223 219 221 223 225 236 252 262 272 287 297 306 312 308 308 311 312 312 312 312 312 311 310 309 308 308 307 307 307 304 300 297 292 287 283 283 281 279 277 278 278 282 283
218 226 233 234 230 244 263 263 261 267 273 284 297 301 304 307 308 309 310 310 309 308 307 306 305 303 302 304 303 299 295 292 290 288 287 283 280 279 277 273 270 270 274
213 228 236 235 244 252 247 240 248 256 271 286 294 299 303 305 308 308 309 310 309 308 307 306 304 302 300 299 297 298 290 284 281 282 284 284 282 282 279 277 275 270 264
233 241 241 246 247 245 237 239 251 268 282 289 295 299 302 306 310 311 312 311 310 310 309 308 306 303 302 301 298 297 290 285 282 279 276 278 280 278 279 277 274 273 271
245 251 255 257 257 245 240 250 260 273 285 291 297 302 308 312 313 314 314 314 313 312 311 310 309 309 308 308 304 299 293 289 287 285 283 281 279 279 279 277 275 270 265
267 270 269 256 252 243 246 254 267 283 291 297 301 307 311 313 314 315 316 316 315 314 314 314 313 310 308 310 306 300 296 294 295 294 292 289 287 286 282 276 272 271 268
265 265 259 255 249 250 259 268 280 288 293 296 302 309 313 315 316 316 317 317 317 317 318 314 311 312 317 319 316 301 296 293 295 297 297 294 292 288 282 276 274 272 275
271 265 256 249 247 254 265 274 282 288 292 299 308 313 315 315 316 316 318 319 321 321 318 314 316 321 324 325 321 304 297 295 292 292 294 298 296 293 291 287 276 271 271
269 261 254 245 248 257 270 279 284 289 294 303 310 314 315 316 318 319 322 322 326 321 316 317 323 327 328 325 324 312 306 298 293 296 299 295 294 292 287 281 279 278 268
270 258 255 245 254 266 275 279 283 287 296 305 310 313 316 316 318 321 327 326 328 322 317 325 322 319 313 310 309 311 312 311 305 302 301 303 298 287 287 284 279 280 273
267 259 251 251 260 268 273 278 282 289 298 305 309 313 313 315 320 323 329 330 330 322 314 310 309 310 309 312 312 308 306 304 301 298 295 296 295 290 289 284 275 274 273
266 256 252 257 265 270 275 279 282 291 301 305 308 311 312 317 322 323 324 335 329 327 311 306 306 309 307 311 312 309 309 306 304 299 295 294 293 290 285 275 270 275 272
Wind_Speed_850mb
35 34 34 34 33 29 24 23 14 9 5 10 12 13 12 14 18 16 23 28 31 33 35 37 41 49 55 54 55 56 60 62 60 61 66 68 68 68 67 65 61 57 53
37 40 42 47 53 53 51 44 39 31 24 16 13 6 3 10 15 17 19 24 28 29 29 32 37 42 50 55 56 56 61 62 63 65 67 58 70 78 76 73 71 66 62
39 41 44 51 52 57 58 56 53 47 42 34 20 10 4 7 10 12 15 20 22 24 25 23 31 39 45 49 52 56 59 63 65 68 61 23 34 46 59 76 80 75 70
37 40 43 48 51 51 48 48 47 47 47 42 37 32 26 21 18 13 9 17 24 27 27 29 31 34 41 45 47 51 56 63 69 69 74 80 72 31 24 37 53 71 75
35 38 39 42 43 44 48 48 45 44 43 40 39 36 33 30 24 16 16 15 13 14 20 28 34 38 40 42 44 46 51 57 66 71 74 76 82 89 80 68 62 58 54
31 33 32 33 38 39 38 39 37 39 37 36 35 33 29 27 25 28 29 33 30 22 20 22 25 28 33 42 49 47 48 54 63 67 72 78 74 73 83 91 95 92 81
23 25 25 28 29 28 28 27 24 24 22 22 21 24 25 24 25 28 33 33 35 37 37 35 30 32 34 34 38 46 55 52 58 65 72 75 82 84 85 83 82 85 84
19 15 16 16 20 23 22 19 18 20 21 20 20 21 21 23 24 25 25 26 30 33 36 37 37 35 35 35 36 42 47 53 60 63 65 73 76 78 81 87 83 86 89
19 9 3 11 15 16 13 13 13 13 13 15 15 17 21 23 27 30 32 34 36 36 36 39 39 38 35 36 39 40 39 45 53 59 65 71 73 72 76 82 82 85 80
24 16 9 11 13 11 9 10 12 13 14 13 14 17 20 24 27 31 34 37 40 44 47 47 50 51 48 46 43 43 43 47 46 48 53 60 69 73 72 74 79 83 92
32 24 18 13 9 5 2 4 7 11 14 18 22 25 28 31 33 35 37 40 41 44 47 50 51 57 59 57 57 56 55 57 58 53 53 52 50 61 73 75 74 80 82
33 28 23 20 15 11 6 1 4 10 17 23 28 31 34 37 42 46 47 48 51 50 57 61 62 63 66 67 67 70 70 68 68 68 67 65 57 56 56 62 78 82 80
40 33 28 25 19 14 10 7 7 12 22 28 32 36 41 46 50 55 56 57 61 64 67 71 75 78 81 82 78 78 81 84 83 79 74 74 70 71 64 60 65 69 78
45 36 34 31 24 20 17 15 13 16 25 31 35 39 42 47 53 57 61 66 72 79 87 92 95 95 96 95 94 93 90 89 92 92 92 86 80 78 73 72 71 69 71
41 41 38 35 32 25 23 24 26 29 34 37 41 44 47 52 55 58 63 71 80 88 96 103 106 108 108 104 98 90 92 96 99 99 98 97 97 93 83 80 80 75 76
39 42 41 40 38 33 30 32 34 35 36 39 43 46 51 57 59 66 74 83 92 97 99 101 102 105 106 105 88 67 73 85 96 104 106 103 104 102 102 96 87 82 82
25 27 42 42 38 38 41 42 41 40 40 44 46 52 59 61 66 74 84 89 93 97 100 101 102 105 107 105 103 81 77 87 95 102 109 113 112 104 98 98 99 98 91
28 28 31 35 36 42 48 45 40 39 43 47 51 56 58 65 75 82 85 90 91 94 98 102 103 107 108 103 98 87 89 102 107 105 100 93 100 103 87 87 92 100 104
18 27 35 39 41 41 43 41 40 41 47 51 55 58 65 74 78 82 84 87 91 95 97 99 101 100 100 88 76 65 69 80 87 88 90 90 95 94 83 85 93 98 108
37 42 43 40 41 42 42 42 42 45 49 54 56 62 71 74 79 79 82 85 88 93 94 97 91 84 81 70 63 56 61 70 75 76 72 70 70 74 75 80 92 103 113
36 42 45 43 44 42 42 44 44 48 52 54 59 66 68 73 74 78 80 82 86 87 88 87 81 75 70 63 57 53 57 67 76 80 82 80 74 76 78 75 80 88 93
43 43 46 48 48 46 47 49 49 52 52 56 63 65 66 67 69 74 77 79 80 82 82 81 79 71 69 67 65 57 58 62 74 85 88 84 76 72 73 74 84 89 88
43 45 51 53 51 48 48 51 53 54 54 61 65 64 65 66 67 70 72 76 73 74 76 74 76 83 83 84 81 70 67 64 72 81 86 82 85 85 87 86 85 85 92
45 46 52 54 51 50 49 52 54 53 57 63 65 64 66 67 67 66 66 68 68 72 71 73 84 86 80 76 73 80 83 86 81 88 97 95 91 82 87 88 87 84 85
50 53 55 55 53 52 51 51 52 53 57 61 63 62 63 65 65 64 61 61 62 65 65 72 75 81 82 80 72 75 78 84 87 86 90 90 92 93 91 89 76 75 76
51 56 55 53 50 51 50 50 52 53 56 60 60 59 61 61 61 64 65 47 55 61 53 56 56 63 66 67 71 72 72 74 75 80 85 82 81 85 87 83 77 74 75
Wind_Direction_850mb
78 75 71 69 67 67 65 63 70 98 218 241 228 230 242 236 239 261 263 265 268 269 272 274 274 273 266 268 274 272 266 263 260 257 254 253 252 250 249 250 252 253 254
84 80 76 73 67 66 64 59 54 51 53 56 58 39 288 259 246 234 254 264 267 269 273 279 277 276 277 276 272 271 271 268 262 256 254 256 255 253 252 252 252 253 252
95 86 77 71 69 65 60 58 57 55 52 47 43 34 313 277 260 256 255 283 286 278 271 269 274 272 274 277 275 273 274 274 269 263 250 251 248 261 256 252 252 251 252
94 85 78 74 66 58 55 52 47 48 47 45 44 44 45 42 36 10 324 284 280 277 272 273 263 259 270 276 279 277 271 272 271 268 261 253 255 278 286 268 258 252 251
96 86 77 70 65 58 49 43 38 37 37 30 31 32 32 31 23 3 339 326 321 300 282 275 272 263 265 269 275 275 274 271 272 269 269 267 261 258 263 273 272 272 269
104 94 79 69 62 55 46 39 27 26 24 19 18 18 23 24 16 19 17 14 4 344 322 308 299 289 282 273 269 271 267 267 269 272 270 267 263 261 263 265 269 274 274
116 96 77 67 58 42 41 37 28 29 32 28 21 19 19 17 14 10 9 2 3 4 6 360 342 320 306 297 289 279 270 268 267 268 268 269 267 266 265 266 272 273 273
144 122 82 55 29 25 29 34 34 38 35 32 34 30 29 27 29 29 22 7 2 1 359 356 353 349 345 334 316 295 287 278 269 268 268 267 268 268 267 266 265 269 271
169 150 100 354 359 12 22 34 42 48 47 38 27 18 14 10 12 13 7 2 355 350 348 344 340 339 340 337 332 329 319 296 287 281 274 267 266 266 267 269 267 267 267
190 201 240 301 329 354 21 43 54 51 47 39 23 15 6 1 356 350 345 343 340 335 333 329 329 330 329 327 324 319 320 314 310 304 291 281 274 269 267 267 270 266 267
201 213 238 256 267 263 142 94 55 36 21 10 1 355 352 350 347 344 340 333 330 327 324 321 320 320 320 321 320 317 312 308 306 304 302 298 293 282 275 268 265 268 269
213 224 234 240 219 212 205 157 20 360 356 353 349 344 338 335 335 336 334 330 325 323 320 319 318 314 312 311 311 310 309 307 304 302 301 297 296 293 286 281 276 269 266
223 220 221 218 220 224 227 257 301 336 339 339 336 333 329 326 327 328 327 325 321 318 315 313 311 310 309 306 305 302 301 299 298 296 293 293 294 291 291 290 284 282 277
225 228 215 216 225 229 240 254 270 306 321 325 322 319 317 317 318 319 318 317 317 316 315 314 312 309 306 305 303 302 298 293 290 289 288 286 285 285 287 287 286 286 282
223 219 221 223 225 236 252 262 272 287 297 306 312 308 308 311 312 312 312 312 312 311 310 309 308 308 307 307 307 304 300 297 292 287 283 283 281 279 277 278 278 282 283
218 226 233 234 230 244 263 263 261 267 273 284 297 301 304 307 308 309 310 310 309 308 307 306 305 303 302 304 303 299 295 292 290 288 287 283 280 279 277 273 270 270 274
213 228 236 235 244 252 247 240 248 256 271 286 294 299 303 305 308 308 309 310 309 308 307 306 304 302 300 299 297 298 290 284 281 282 284 284 282 282 279 277 275 270 264
233 241 241 246 247 245 237 239 251 268 282 289 295 299 302 306 310 311 312 311 310 310 309 308 306 303 302 301 298 297 290 285 282 279 276 278 280 278 279 277 274 273 271
245 251 255 257 257 245 240 250 260 273 285 291 297 302 308 312 313 314 314 314 313 312 311 310 309 309 308 308 304 299 293 289 287 285 283 281 279 279 279 277 275 270 265
267 270 269 256 252 243 246 254 267 283 291 297 301 307 311 313 314 315 316 316 315 314 314 314 313 310 308 310 306 300 296 294 295 294 292 289 287 286 282 276 272 271 268
265 265 259 255 249 250 259 268 280 288 293 296 302 309 313 315 316 316 317 317 317 317 318 314 311 312 317 319 316 301 296 293 295 297 297 294 292 288 282 276 274 272 275
271 265 256 249 247 254 265 274 282 288 292 299 308 313 315 315 316 316 318 319 321 321 318 314 316 321 324 325 321 304 297 295 292 292 294 298 296 293 291 287 276 271 271
269 261 254 245 248 257 270 279 284 289 294 303 310 314 315 316 318 319 322 322 326 321 316 317 323 327 328 325 324 312 306 298 293 296 299 295 294 292 287 281 279 278 268
270 258 255 245 254 266 275 279 283 287 296 305 310 313 316 316 318 321 327 326 328 322 317 325 322 319 313 310 309 311 312 311 305 302 301 303 298 287 287 284 279 280 273
267 259 251 251 260 268 273 278 282 289 298 305 309 313 313 315 320 323 329 330 330 322 314 310 309 310 309 312 312 308 306 304 301 298 295 296 295 290 289 284 275 274 273
266 256 252 257 265 270 275 279 282 291 301 305 308 311 312 317 322 323 324 335 329 327 311 306 306 309 307 311 312 309 309 306 304 299 295 294 293 290 285 275 270 275 272